Temp
11 11 11 11 11 11 12 12 11 11 11 12 12 13 13 13 14 15 15 15 16 15 15 15 14 14 14 14 13 13 13 12 11 9 9 9 8 8 8 8 8 7 7
10 10 10 10 10 10 11 11 11 11 11 11 11 11 12 12 13 13 13 13 13 13 12 12 12 12 12 12 13 12 12 11 10 9 8 8 7 7 7 7 7 7 7
10 10 10 9 9 9 9 9 10 10 10 10 10 10 10 11 11 11 12 12 12 11 11 11 11 11 11 11 11 11 10 9 9 8 7 7 7 7 7 6 6 6 6
10 9 9 9 9 9 9 9 9 9 9 9 9 9 9 9 9 9 9 10 10 10 10 10 10 10 10 10 9 9 8 8 8 8 7 6 6 6 6 6 5 5 5
9 9 9 9 9 9 9 9 9 9 9 9 9 8 8 9 9 8 9 9 9 9 9 9 9 9 9 8 8 8 8 8 7 7 6 6 6 6 5 4 4 4 4
9 9 9 9 9 9 9 9 9 9 8 8 8 8 8 8 8 8 9 8 8 8 8 8 7 7 7 7 7 7 7 7 6 6 5 5 4 4 3 3 3 3 3
9 9 9 9 9 9 9 9 8 8 8 8 8 9 8 8 8 8 8 8 8 7 7 7 7 7 7 6 6 5 5 5 5 5 5 4 3 3 3 2 2 2 2
8 8 9 9 9 9 8 8 8 8 8 7 7 7 7 7 7 7 7 7 7 6 6 6 6 6 6 6 6 5 5 5 5 4 3 3 2 2 2 2 2 2 2
9 9 9 9 9 8 8 8 8 7 7 7 7 7 6 6 6 7 7 6 6 6 6 6 6 5 5 5 5 5 4 3 3 3 2 2 1 1 1 1 1 2 1
10 10 10 9 9 9 8 8 8 8 7 7 6 6 6 6 6 6 6 6 5 5 5 5 5 5 4 4 5 4 3 4 3 4 3 2 1 1 1 1 1 1 1
11 10 10 9 9 9 9 8 8 7 7 6 6 5 5 5 5 5 6 6 5 5 4 4 3 3 3 3 3 4 4 3 3 3 2 2 1 2 2 1 1 1 1
11 10 10 9 9 9 9 8 8 7 7 6 5 5 5 5 5 5 5 5 5 5 4 3 2 2 2 2 3 2 2 2 2 2 2 1 1 1 1 1 1 1 0
11 10 10 9 9 9 8 8 7 7 6 5 5 4 4 4 4 4 4 4 5 4 3 3 2 2 1 2 2 2 1 1 2 2 1 1 1 1 1 1 1 0 0
10 10 9 9 9 9 8 8 7 7 6 6 5 5 4 4 4 4 4 3 3 3 2 2 2 1 1 1 1 1 1 1 1 1 1 1 1 0 1 0 0 0 0
10 9 9 9 8 8 8 8 8 7 7 7 6 6 5 4 4 4 4 4 3 3 2 2 1 1 1 1 1 1 0 1 0 0 -0 -0 -0 -0 0 -0 -0 -0 -0
9 8 9 9 8 8 8 7 7 8 7 7 7 7 6 6 5 4 4 3 3 2 2 1 1 1 1 1 1 0 0 0 -0 -0 -1 -1 -1 -1 -0 -0 -1 -1 -1
9 8 8 8 8 8 7 7 6 7 7 7 7 6 6 6 5 4 3 3 2 2 2 2 1 1 1 1 0 0 -0 -0 -1 -1 -1 -1 -1 -1 -1 -1 -1 -1 -1
10 9 8 8 7 7 7 7 7 6 6 5 6 6 6 5 5 4 3 2 2 1 2 1 1 1 1 0 0 -0 -0 -1 -1 -1 -1 -1 -1 -2 -1 -2 -2 -1 -1
10 9 8 8 8 8 7 7 7 6 6 5 4 5 5 5 4 3 2 3 2 1 1 1 1 1 0 -0 -0 -1 -1 -1 -2 -2 -2 -2 -2 -2 -2 -2 -2 -2 -2
10 9 9 9 8 8 7 7 6 6 5 5 4 4 3 3 2 2 2 1 1 1 1 1 1 0 -0 -1 -1 -1 -2 -2 -2 -2 -2 -2 -2 -2 -2 -2 -2 -2 -2
10 10 10 9 8 8 7 6 7 6 5 5 5 5 4 3 2 2 3 1 2 2 1 1 1 0 -1 -1 -2 -2 -2 -2 -2 -3 -3 -3 -3 -3 -3 -3 -3 -2 -3
11 10 9 9 8 8 7 7 7 7 6 5 4 4 3 2 3 3 3 2 2 1 1 1 0 -0 -1 -2 -2 -2 -3 -3 -3 -3 -3 -3 -3 -3 -3 -3 -3 -3 -3
11 10 9 8 8 8 7 7 7 6 6 5 4 3 2 2 3 3 3 2 1 1 1 0 -0 -1 -2 -3 -3 -3 -3 -3 -3 -3 -3 -4 -4 -3 -4 -4 -3 -3 -3
11 10 9 8 8 8 7 7 6 6 6 5 5 4 3 3 3 3 3 2 1 1 0 -0 -1 -2 -3 -4 -3 -3 -3 -3 -3 -3 -4 -4 -4 -4 -4 -3 -3 -3 -3
10 10 9 9 8 7 7 6 6 5 5 5 4 4 4 4 3 3 2 2 1 1 -0 -1 -2 -3 -4 -4 -4 -4 -3 -3 -4 -4 -5 -5 -4 -4 -4 -4 -4 -4 -4
10 9 9 9 8 7 7 6 6 5 5 4 4 4 4 4 3 3 2 1 0 -0 -1 -2 -3 -3 -4 -4 -4 -4 -5 -5 -5 -5 -5 -5 -5 -4 -4 -4 -4 -4 -4
Height
774 775 775 777 777 778 778 779 780 782 786 790 796 800 806 811 813 817 822 825 827 831 836 837 840 844 847 850 853 855 858 860 863 864 865 866 867 869 870 871 872 870 871
776 776 778 779 779 779 780 783 784 787 789 793 798 803 807 811 814 817 821 827 831 833 837 840 843 847 849 851 853 854 856 857 859 860 862 864 867 868 869 870 870 869 870
779 779 780 782 782 783 785 787 788 791 793 796 799 803 807 810 815 820 825 828 830 835 838 841 844 847 849 852 852 853 854 856 856 859 861 865 867 867 869 868 868 868 869
781 782 783 784 786 789 790 793 795 795 796 799 803 806 810 814 817 821 824 827 831 836 840 843 847 848 849 851 852 853 854 855 857 859 863 865 866 866 866 868 867 866 865
782 785 787 790 791 794 796 797 801 802 803 804 807 812 814 816 821 825 828 830 834 838 841 844 847 848 850 851 852 852 855 856 857 860 863 865 867 866 866 866 866 866 866
783 787 790 792 795 797 800 802 804 806 809 811 813 815 817 821 826 829 832 834 837 840 843 847 849 851 852 853 854 855 857 857 857 859 862 865 865 867 866 865 865 864 864
784 788 791 794 796 799 801 804 806 809 812 813 815 817 821 825 829 832 834 835 838 842 845 848 851 853 854 855 855 857 858 858 859 859 861 861 864 865 866 865 864 863 864
785 789 792 795 798 801 804 807 810 812 814 816 820 823 825 830 832 834 836 839 841 844 846 848 850 853 854 855 856 856 857 859 860 861 862 863 863 863 863 863 862 862 862
786 789 792 796 800 803 806 809 812 815 819 821 825 828 830 833 836 838 839 841 843 845 846 849 851 853 855 855 855 855 857 859 860 861 861 862 862 860 861 860 860 861 860
785 789 793 797 800 804 808 811 814 817 820 823 827 830 833 835 838 839 841 842 845 847 849 851 853 854 854 855 855 855 856 858 859 859 860 861 860 859 860 860 860 860 860
784 789 794 797 801 805 809 812 815 818 822 825 828 831 834 836 838 840 842 844 845 846 848 851 853 854 855 856 855 856 856 857 858 858 858 858 860 860 860 861 861 861 861
782 788 793 797 801 805 809 813 815 818 821 825 829 832 835 836 837 839 841 842 843 844 846 849 851 853 854 855 855 855 856 856 856 857 858 859 859 860 860 861 861 860 860
781 787 792 797 801 804 807 811 815 818 821 824 827 830 833 836 838 840 842 843 845 846 849 852 854 854 855 854 855 855 855 855 856 856 858 859 859 860 860 859 859 858 858
778 784 789 794 799 803 807 811 814 817 820 823 826 829 833 836 837 838 840 843 845 847 848 850 850 852 853 854 855 855 855 856 856 857 858 858 859 858 858 858 857 857 856
776 782 787 793 797 802 806 809 813 817 819 821 823 826 829 833 837 840 842 843 845 847 849 851 853 853 853 853 854 854 855 856 856 856 856 857 857 857 856 856 856 855 854
773 779 784 789 794 799 804 809 815 817 820 823 826 827 830 833 836 839 841 844 846 848 848 850 851 852 852 853 853 854 854 854 855 855 855 855 855 855 855 854 854 853 851
768 775 780 784 789 794 799 803 807 815 819 822 826 828 831 832 835 838 840 842 846 848 848 849 850 851 851 852 853 853 853 853 853 854 854 854 854 853 853 852 851 851 850
764 769 775 781 785 790 795 799 804 808 813 819 823 825 828 832 835 838 840 842 844 845 847 848 849 850 849 851 851 852 851 851 852 852 852 852 852 852 851 851 850 849 847
761 767 772 777 782 788 793 798 804 809 813 816 821 825 827 830 833 836 839 840 841 843 845 846 847 848 849 850 850 850 850 850 850 850 850 850 850 850 850 849 848 847 845
759 764 769 775 781 786 790 795 801 807 811 813 815 818 823 827 830 834 836 838 840 841 842 843 845 846 847 847 848 848 848 848 849 849 849 849 848 848 847 847 846 845 843
753 759 763 769 775 781 787 792 796 801 805 808 811 815 818 821 826 830 832 835 837 838 839 841 843 844 844 845 846 846 847 847 847 848 848 847 847 846 846 846 845 843 841
749 755 761 766 771 777 783 788 791 796 800 804 808 813 819 822 824 826 829 833 835 837 839 840 841 841 842 843 843 844 845 845 846 846 845 845 845 844 844 844 843 841 840
746 752 757 763 769 774 779 783 788 793 797 802 807 812 816 819 823 824 827 831 833 835 837 838 838 839 841 842 843 844 844 845 845 845 844 844 844 843 842 842 840 839 838
743 748 753 759 764 769 775 780 785 790 794 799 804 808 812 815 818 821 826 829 831 833 834 836 838 839 840 842 843 843 843 843 843 843 843 843 842 841 840 839 838 836 835
738 744 750 755 760 765 771 777 782 786 791 796 801 805 809 813 817 820 825 827 829 831 833 835 837 838 839 840 841 841 841 842 842 842 842 841 841 840 839 837 835 833 831
734 740 747 752 757 762 767 773 778 783 787 792 797 802 806 811 815 819 822 825 828 830 832 834 835 836 837 838 839 840 840 840 840 839 839 839 838 837 836 834 832 830 829
Wind_Speed
13 14 14 15 15 15 14 12 18 24 25 26 27 26 24 20 19 23 20 21 24 25 23 22 22 19 18 16 13 9 4 2 6 6 8 8 7 7 7 7 6 6 6
13 15 16 15 16 18 17 15 15 16 16 22 26 25 24 19 17 18 20 18 21 20 16 12 14 13 10 7 6 6 7 8 7 4 5 6 7 6 8 7 6 7 9
17 18 18 18 20 21 21 20 19 19 17 16 18 19 18 16 17 18 18 16 12 9 7 6 9 10 12 11 10 11 7 5 4 4 4 5 5 7 6 5 6 5 6
20 20 20 21 22 22 21 21 20 21 22 20 18 17 17 17 16 16 16 15 15 14 14 13 12 11 10 9 7 7 7 7 6 6 4 4 4 3 3 4 3 6 8
22 22 22 22 22 22 22 21 20 21 22 23 23 21 19 18 16 16 16 16 15 13 10 9 8 7 6 7 8 9 8 8 7 5 4 2 2 3 3 2 1 6 6
23 22 22 22 22 21 21 22 22 21 21 22 22 21 19 17 16 16 16 16 15 14 13 11 11 10 10 9 9 7 4 5 5 4 2 2 0 3 4 1 2 3 3
22 21 21 21 22 21 22 22 22 22 21 21 20 20 19 17 14 14 15 17 17 16 16 15 14 12 12 12 10 8 7 6 3 3 6 7 5 2 1 2 3 4 7
23 22 23 24 25 25 24 23 23 22 22 22 23 23 23 19 17 18 17 18 18 17 14 12 12 11 9 8 6 6 6 5 3 5 4 4 2 3 4 4 4 8 8
23 23 22 25 25 25 25 24 23 23 21 21 21 22 23 19 16 17 17 17 17 16 13 12 11 10 8 5 6 6 10 11 9 5 5 5 4 4 4 4 1 3 3
26 26 27 27 28 27 26 25 24 21 21 20 19 18 19 18 13 13 13 14 14 12 9 8 6 5 3 2 6 5 12 12 6 4 2 4 4 2 5 6 7 5 5
30 30 29 29 28 27 27 25 25 24 23 21 20 18 18 18 15 13 12 12 12 12 9 10 7 5 6 5 3 3 4 7 4 2 3 6 3 2 1 1 2 4 4
35 33 31 30 29 30 28 27 26 26 26 22 21 18 16 17 16 14 14 12 12 14 13 10 9 8 6 5 4 4 4 3 2 2 7 2 3 3 3 4 6 6 6
37 35 34 31 31 30 30 29 28 28 26 26 24 21 18 15 15 12 12 11 11 11 10 8 6 3 2 3 2 1 1 2 1 2 6 5 5 5 6 8 6 7 6
38 36 34 32 30 29 27 28 28 28 26 26 23 19 17 15 15 14 13 12 12 11 10 6 4 3 4 3 1 2 4 2 1 3 5 5 6 6 7 6 5 6 8
37 37 36 34 32 30 27 27 25 23 23 24 22 22 22 19 17 12 11 11 10 10 10 9 6 4 4 3 1 1 2 4 4 4 4 5 6 8 7 5 6 7 8
33 33 35 34 31 29 27 23 18 17 17 15 15 16 16 8 13 11 10 9 9 13 11 8 6 5 4 2 1 5 5 5 5 5 6 7 7 6 8 7 6 9 9
33 31 32 35 35 33 31 29 24 18 15 14 13 13 13 13 13 16 13 10 13 11 8 6 7 5 5 4 4 6 5 5 5 6 6 6 7 7 6 8 9 6 9
36 37 34 34 33 34 33 31 28 27 25 19 16 16 15 13 19 18 12 11 11 8 7 7 6 7 5 6 5 5 5 5 6 5 5 5 4 5 7 6 7 10 12
35 32 34 35 34 33 32 30 28 26 26 24 20 17 16 15 16 14 13 13 13 13 9 8 8 7 6 6 6 5 4 4 3 3 4 6 5 6 8 9 9 9 9
32 31 34 33 32 31 31 31 29 26 25 25 26 24 21 19 19 18 16 15 12 12 12 9 8 7 5 5 4 4 4 3 3 3 4 5 6 6 7 8 9 9 12
36 34 35 34 33 33 32 30 30 28 28 29 28 26 25 25 24 21 17 19 15 12 10 8 7 6 5 4 4 4 4 4 4 4 7 7 6 7 6 8 10 11 11
36 34 34 33 33 31 32 31 30 29 27 26 25 24 23 22 23 20 18 17 11 9 9 9 7 7 6 6 5 4 5 4 4 7 7 4 4 5 7 10 11 10 12
35 34 32 31 31 30 30 31 30 28 27 25 23 23 26 24 23 19 18 14 9 11 10 9 8 7 6 4 2 4 6 6 7 4 3 5 8 10 10 10 11 13 13
35 34 32 31 31 31 30 30 29 29 27 26 25 26 27 25 23 20 17 11 11 12 10 8 6 5 3 3 2 2 3 3 3 4 7 9 7 7 10 12 14 15 12
35 34 32 32 31 30 28 27 28 28 28 27 26 26 26 23 20 18 16 12 12 12 9 7 6 4 4 4 3 4 5 5 6 7 8 8 9 12 13 14 15 16 15
34 33 32 30 30 29 29 28 27 28 27 27 27 26 25 23 21 18 16 13 13 10 9 8 7 5 7 6 5 5 4 5 7 7 5 7 10 12 13 15 15 14 15
Wind_Direction
125 126 131 136 139 144 131 119 125 150 157 157 162 167 164 156 149 150 146 147 153 152 153 149 142 143 143 145 145 145 155 245 192 225 251 268 242 222 202 217 244 260 277
123 119 117 126 129 125 124 126 136 137 153 166 171 174 174 165 152 153 148 139 137 136 140 145 143 147 149 171 207 247 267 269 250 208 240 222 214 202 204 231 252 271 288
122 118 116 115 117 116 118 124 127 131 136 147 167 173 177 173 174 178 179 176 181 175 182 202 200 201 203 224 252 263 249 212 192 192 165 189 200 210 228 259 292 298 314
126 118 114 112 110 112 117 117 120 125 127 130 138 146 157 165 175 178 176 168 168 168 167 173 187 204 220 227 205 169 149 135 141 139 139 168 199 210 251 292 308 321 321
132 125 124 126 125 124 123 122 122 122 122 123 125 126 129 133 143 155 158 158 163 166 177 186 190 184 167 159 159 143 144 135 127 134 130 159 252 267 242 186 289 327 351
140 132 136 135 136 133 130 126 126 121 124 127 126 126 125 126 139 148 154 153 153 149 139 134 124 125 125 127 122 116 134 129 131 128 141 197 204 173 147 191 331 341 326
145 143 144 143 139 135 132 130 128 129 130 123 121 122 119 120 133 137 142 138 135 132 132 131 128 131 135 129 119 110 92 84 108 142 145 130 129 149 266 312 319 311 294
147 147 150 147 141 139 137 133 129 129 126 122 121 119 115 113 118 125 129 129 126 128 130 131 139 138 139 142 130 131 126 120 112 101 85 88 11 308 290 279 302 310 303
155 155 159 152 148 144 139 136 134 129 124 124 127 129 124 120 124 135 137 136 131 127 129 141 149 145 132 149 154 156 162 140 133 96 70 49 24 33 331 283 227 354 357
167 163 160 157 154 151 147 143 142 138 133 133 135 138 134 126 130 138 147 149 142 137 134 124 144 154 162 203 215 187 180 184 193 269 254 341 343 12 48 58 42 36 18
168 164 163 162 158 155 152 151 147 144 142 140 137 145 145 142 129 137 145 147 146 140 136 131 126 98 113 88 110 133 177 177 188 155 55 347 329 293 287 357 16 358 332
167 166 166 164 161 158 156 155 154 153 150 149 142 139 148 150 144 136 150 153 154 158 153 141 124 120 114 85 101 86 115 176 151 26 326 295 271 285 295 292 305 303 302
166 167 166 166 165 165 161 161 160 162 158 158 156 151 148 149 147 142 138 132 155 146 139 130 123 110 83 248 17 307 251 201 240 299 305 272 267 270 285 292 289 301 312
167 169 168 170 170 172 174 172 171 172 168 165 163 160 156 156 162 162 150 142 141 144 141 142 123 131 84 44 39 264 245 235 353 318 283 268 264 276 292 303 297 314 324
168 170 171 173 174 174 179 180 183 185 184 179 180 176 173 179 184 179 170 166 172 166 160 155 155 155 160 123 87 302 294 286 288 290 277 276 282 291 296 303 293 304 302
166 171 173 176 178 177 177 178 191 193 193 198 194 193 191 194 179 178 175 177 180 173 174 182 186 196 198 183 218 269 266 267 271 275 274 279 283 291 302 310 311 307 297
171 175 177 180 180 180 181 178 168 179 191 194 196 195 194 183 180 174 177 171 161 179 204 213 207 219 223 214 253 267 271 272 276 277 281 281 287 290 303 312 314 311 319
180 181 180 183 182 184 186 184 177 166 162 162 183 189 189 185 184 191 187 181 179 201 204 206 212 216 225 253 255 266 262 263 270 272 289 282 283 308 312 318 317 315 317
184 182 186 188 191 191 191 190 188 183 179 171 168 178 187 184 185 185 178 206 200 207 219 230 229 231 238 253 254 267 277 279 296 294 307 310 314 312 308 314 316 316 320
188 188 193 195 193 194 195 193 194 195 193 191 191 188 178 176 172 176 198 215 209 220 229 234 232 225 252 251 253 256 271 279 298 313 318 313 308 308 309 314 320 326 326
189 192 197 197 195 197 197 195 198 202 204 204 205 199 195 191 187 194 217 215 221 227 230 222 227 244 252 254 243 258 266 269 281 308 313 311 316 318 324 324 320 318 319
192 193 192 194 195 194 198 202 204 205 207 206 207 204 192 198 202 207 218 214 228 232 229 243 247 253 249 248 247 262 271 261 291 303 302 299 322 336 329 323 324 334 338
194 193 193 195 198 199 201 203 205 206 206 206 202 192 187 203 208 218 212 211 221 215 230 241 241 236 248 262 271 296 294 291 294 293 316 329 329 320 314 319 323 322 321
198 197 195 195 197 201 202 203 205 208 206 204 200 196 197 204 209 210 205 210 215 221 235 235 226 239 233 218 246 261 273 266 277 284 306 308 305 303 310 312 313 313 316
199 197 197 196 196 199 199 202 203 203 204 203 199 199 205 207 208 204 203 215 218 223 223 213 216 231 195 204 221 258 267 272 279 290 303 299 300 309 313 316 319 318 316
196 195 196 197 197 199 200 199 200 201 200 201 201 204 206 205 206 204 209 215 212 212 206 205 214 224 201 207 212 240 263 274 284 290 297 299 299 305 309 310 313 318 316